Regional Weather Roundup
Issued by NWS Cleveland, OH

Home | Current Version | Previous Version | Text Only | Print | Product List | Glossary Off
Versions: 1 2 3 4 5 6 7 8 9 10 11 12 13 14 15 16 17 18 19 20 21 22 23 24 25 26 27 28 29 30 31 32 33 34 35 36 37 38 39 40 41 42 43 44 45 46 47 48 49 50

000
ASUS41 KCLE 261212
RWRCLE
OHIO REGIONAL WEATHER ROUNDUP
NATIONAL WEATHER SERVICE WILMINGTON, OH
800 AM EDT TUE SEP 26 2017

NOTE: "FAIR" INDICATES FEW OR NO CLOUDS BELOW 12,000 FEET WITH NO
SIGNIFICANT WEATHER AND/OR OBSTRUCTIONS TO VISIBILITY.

OHZ001>008-015>018-024>027-034-035-043-044-261300-
   NORTHWEST OHIO

CITY           SKY/WX    TMP DP  RH WIND       PRES   REMARKS
DEFIANCE       FAIR      63  59  87 CALM      30.02R
FINDLAY        FAIR      66  60  81 S5        30.01S
TOLEDO EXPRESS FAIR      63  62  97 CALM      30.01R
TOLEDO EXEC    FAIR      67  62  84 SW3       30.01R
LIMA           FAIR      65  62  90 CALM      30.03R
$$

OHZ009>014-019>023-028>033-038-089-261300-
   NORTHEAST OHIO

CITY           SKY/WX    TMP DP  RH WIND       PRES   REMARKS
CLE-HOPKINS    FAIR      70  63  78 S3        30.04R
CLE-LAKEFRONT  FAIR      72  61  68 SE9       30.01R
CUY CO. ARPT   PTCLDY    66  63  88 SE6       30.04R
LORAIN-ELYRIA  FAIR      63  57  81 SW3       30.04R
ASHTABULA      FAIR      64  64 100 CALM      30.05R
AKRON-CANTON   FAIR      66  59  78 SE6       30.06R
WOOSTER        FAIR      56  55  97 CALM      30.06R
MANSFIELD      FAIR      63  62  97 S5        30.06R
YOUNGSTOWN     FAIR      62  61  96 CALM      30.06R
$$

OHZ042-051>053-060>062-070>072-077>081-261300-
  SOUTHWEST OHIO

CITY           SKY/WX    TMP DP  RH WIND       PRES   REMARKS
CINC-COVINGTON FAIR      64  64 100 CALM      30.03R
CINC-LUNKEN    CLOUDY    62  62 100 CALM      30.04R FOG
HAMILTON       FAIR      59  59 100 CALM      30.05R FOG
DAYTON         FAIR      65  61  87 SE6       30.05R
WRIGHT-PAT AFB FAIR      63  63 100 CALM      30.04R
DAYTON GENERAL FAIR      64  60  87 CALM      30.04R
WILMINGTON     FAIR      62  61  96 CALM      30.05R FOG
$$

OHZ036-037-039>041-045>050-054>059-063>069-073>076-082>088-261300-
  CENTRAL AND SOUTHEAST OHIO

CITY           SKY/WX    TMP DP  RH WIND       PRES   REMARKS
COLUMBUS       FAIR      65  63  93 CALM      30.04R
OSU AIRPORT    FAIR      63  63 100 CALM      30.05R FOG
BOLTON FIELD   CLEAR     59  59 100 CALM      30.05R
RICKENBACK AFB FAIR      60  60 100 CALM      30.04R
NEWARK         FOG       59  58  96 CALM      30.05R VSB 1/2
MARION         FAIR      64  61  90 S5        30.05R
LANCASTER      FAIR      57  57 100 CALM      30.06R FOG
ZANESVILLE     FAIR      60  58  92 CALM      30.05R
NEW PHILLY     FAIR      60  60 100 SE3       30.06R FOG
$$



USA.gov is the U.S. government's official web portal to all federal, state and local government web resources and services.